Alturas, CA

5:33 AM PST on February 24, 2017 (GMT -0800)
Alturas Municipal

Weather History for KAAT - October, 2011

Change the Weather History Date:

Thursday, October 20, 2011

  Actual Average Record
Temperature  
Mean Temperature 51 °F 46 °F  
Max Temperature 72 °F 63 °F 85 °F (1915)
Min Temperature 30 °F 28 °F 11 °F (1996)
Degree Days  
Heating Degree Days 14 19  
Month to date heating degree days 304 328  
Since 1 July heating degree days 466 705  
Cooling Degree Days 0 0  
Month to date cooling degree days 0 0  
Year to date cooling degree days 122 156  
Moisture  
Dew Point 35 °F    
Average Humidity 63    
Maximum Humidity 100    
Minimum Humidity 25    
Precipitation  
Precipitation 0.00 in 0.04 in 0.52 in (1941)
Month to date precipitation 0.69 0.53  
Year to date precipitation 9.23 10.19  
Sea Level Pressure  
Sea Level Pressure 30.08 in    
Wind  
Wind Speed 3 mph (WSW)    
Max Wind Speed 14 mph    
Max Gust Speed 18 mph    
Visibility 10 miles    
Events      
T = Trace of Precipitation, MM = Missing Value Source: NWS Daily Summary

Daily Weather History Graph

Daily Weather History Graph

Search for Another Location

Airport or City:

Trip Planner

Search our weather history database for the weather conditions in past years. The results will help you decide how hot, cold, wet, or windy it might be!

Date:

Astronomy

Oct. 20, 2011 Rise Set
Actual Time 7:19 AM PDT 6:13 PM PDT
Civil Twilight 6:51 AM PDT 6:41 PM PDT
Nautical Twilight 6:19 AM PDT 7:14 PM PDT
Astronomical Twilight 5:47 AM PDT 7:46 PM PDT
Moon 12:05 AM PDT (10/20) 2:30 PM PDT (10/20)
Length of Visible Light 11h 50m
Length of Day
10h 54m
Last Quarter, 43% of the Moon is Illuminated
Oct 20
Last Quarter
Oct 26
New
Nov 2
First Quarter
Nov 10
Full
Nov 18
Last Quarter

Hourly Weather History & Observations

Time (PDT) Temp. Dew Point Humidity Pressure Visibility Wind Dir Wind Speed Gust Speed Precip Events Conditions
12:55 AM 37.0 °F 36.0 °F 96% 30.09 in 10.0 mi Calm Calm - N/A   Clear
1:55 AM 36.0 °F 35.1 °F 97% 30.09 in 10.0 mi Calm Calm - N/A   Clear
2:55 AM 35.1 °F 34.0 °F 96% 30.08 in 10.0 mi Calm Calm - N/A   Clear
3:55 AM 33.1 °F 30.9 °F 92% 30.08 in 10.0 mi Calm Calm - N/A   Clear
4:55 AM 30.0 °F 28.9 °F 96% 30.09 in 10.0 mi North - - N/A   Clear
5:55 AM 30.9 °F 28.9 °F 92% 30.11 in 10.0 mi Calm Calm - N/A   Clear
8:55 AM 39.9 °F 37.0 °F 89% 30.14 in 10.0 mi Calm Calm - N/A   Clear
9:55 AM 46.0 °F 39.0 °F 76% 30.12 in 10.0 mi Calm Calm - N/A   Clear
10:55 AM 54.0 °F 39.0 °F 57% 30.09 in 10.0 mi Calm Calm - N/A   Clear
11:55 AM 59.0 °F 39.0 °F 48% 30.08 in 10.0 mi North 3.5 mph - N/A   Clear
12:55 PM 66.0 °F 37.9 °F 36% 30.04 in 10.0 mi Calm Calm - N/A   Clear
1:55 PM 69.1 °F 36.0 °F 30% 30.01 in 10.0 mi Calm Calm - N/A   Clear
2:55 PM 70.0 °F 35.1 °F 28% 30.01 in 10.0 mi West 6.9 mph - N/A   Clear
3:55 PM 71.1 °F 34.0 °F 26% 30.00 in 10.0 mi WSW 6.9 mph - N/A   Clear
4:55 PM 69.1 °F 32.0 °F 25% 30.01 in 10.0 mi West 11.5 mph - N/A   Clear
5:55 PM 63.0 °F 33.1 °F 33% 30.04 in 10.0 mi West 10.4 mph - N/A   Clear
6:55 PM 57.9 °F 34.0 °F 41% 30.07 in 10.0 mi West 8.1 mph - N/A   Clear
7:55 PM 54.0 °F 36.0 °F 51% 30.09 in 10.0 mi SSW 4.6 mph - N/A   Clear
8:55 PM 53.1 °F 37.0 °F 55% 30.09 in 10.0 mi SE 4.6 mph - N/A   Clear
9:55 PM 52.0 °F 36.0 °F 54% 30.11 in 10.0 mi SW 4.6 mph - N/A   Clear
10:55 PM 50.0 °F 36.0 °F 59% 30.10 in 10.0 mi SSW 3.5 mph - N/A   Clear
11:55 PM 46.0 °F 37.0 °F 71% 30.12 in 10.0 mi Calm Calm - N/A   Clear